Regional Weather Roundup
Issued by NWS Charleston, SC

Current Version | Previous Version | Text Only | Print | Product List | Glossary Off
Versions: 1 2 3 4 5 6 7 8 9 10 11 12 13 14 15 16 17 18 19 20 21 22 23 24 25 26 27 28 29 30 31 32 33 34 35 36 37 38 39 40 41 42 43 44 45 46 47 48 49 50

407
ASUS42 KCHS 131128
RWRCHS

REGIONAL WEATHER ROUNDUP
NATIONAL WEATHER SERVICE CHARLESTON SC
600 AM EST SAT FEB 13 2016

NOTE: "FAIR" INDICATES FEW OR NO CLOUDS BELOW 12,000 FEET WITH NO
SIGNIFICANT WEATHER AND/OR OBSTRUCTIONS TO VISIBILITY.

NOT ALL STATIONS ARE QUALITY CONTROLLED BY THE NATIONAL
WEATHER SERVICE. USE DATA WITH CAUTION...ESPECIALLY
DEWPOINT OBSERVATIONS.

SCZ027-030-031-034>040-042>050-131200-
...SOUTHEAST SOUTH CAROLINA...

CITY           SKY/WX    TMP DP  RH WIND       PRES   REMARKS
N CHARLESTON   CLEAR     34  31  88 NW5       30.17R WCI  30
WATERFRONT PRK   N/A     39  35  86 CALM      29.99R
MOUNT PLEASANT FAIR      32  32 100 CALM      30.18R
JOHNS ISLAND   FAIR      34  32  93 NW5       30.19R WCI  30
PINOPOLIS        N/A     41  34  75 NW9       30.07R
MONCKS CORNER  FAIR      28  27  93 CALM      30.18R
SUMMERVILLE    FAIR      32  32 100 CALM      30.20R
BEAUFORT MCAS  CLEAR     41  31  67 NW9       30.18R
BEAUFORT ARPT  FAIR      43  32  65 NW8       30.18R HAZE
HILTON HEAD IS NOT AVBL
WALTERBORO     SUNNY     32  32 100 CALM      30.20R
ALLENDALE      FAIR      39  28  65 CALM      30.19R

...SOUTHERN MIDLANDS AND PEE DEE...

CITY           SKY/WX    TMP DP  RH WIND       PRES   REMARKS
GEORGETOWN     FAIR      30  28  93 NW3       30.18R
KINGSTREE      FAIR      27  25  93 CALM      30.18R
ORANGEBURG     CLEAR     30  28  92 VRB3      30.18R
BARNWELL       FAIR      39  30  70 NW6       30.19R WCI  35
AIKEN          FAIR      32  27  80 W6        30.20R WCI  26
MANNING        FAIR      28  27  93 CALM      30.18R
COLUMBIA       CLEAR     37  23  56 NW7       30.17R WCI  32
SUMTER         CLEAR     32  25  74 NW5       30.14R WCI  27
FLORENCE       CLEAR     26  25  96 W6        30.17R WCI  19
MYRTLE BEACH   CLEAR     30  23  74 NW8       30.16R WCI  23
N MYRTLE BEACH CLEAR     32  28  85 NW5       30.14R WCI  27

$$

GAZ063-065-086>088-099>101-113>116-118-119-134>141-150-131200-
...SOUTHEAST GEORGIA...

CITY           SKY/WX    TMP DP  RH WIND       PRES   REMARKS
SAVANNAH ARPT  PTCLDY    43  30  60 NW9       30.18R
HUNTER AAF     CLEAR     43  33  67 NW8       30.16R
FORT STEWART   PTCLDY    45  29  54 NW10      30.17R
STATESBORO     PTCLDY    43  27  52 NW10      30.21R
SYLVANIA       MOSUNNY   38  33  81 NW6       30.21R WCI  34
CLAXTON        FAIR      42  33  69 W9        30.21R

...CSRA...CENTRAL AND FAR SOUTHEAST GEORGIA...

CITY           SKY/WX    TMP DP  RH WIND       PRES   REMARKS
THOMSON        CLEAR     36  29  77 NW5       30.25R WCI  32
AUGUSTA-BUSH   CLEAR     37  24  59 NW9       30.19R WCI  30
AUGUSTA-DANIEL CLEAR     39  22  50 NW10      30.18R WCI  32
SWAINSBORO     FAIR      37  27  65 NW12      30.22R WCI  30
VIDALIA        PTCLDY    41  30  65 NW8       30.23R
EASTMAN        FAIR      41  29  63 NW3       30.28R
HAZLEHURST     FAIR      43  33  65 NW8       30.23R
ALMA           PTCLDY    45  32  60 NW9       30.21R
WAYCROSS       PTCLDY    48  36  64 N8        30.23R
JESUP          FAIR      48  36  61 NW10      30.22R
BAXLEY         FAIR      45  32  61 NW9       30.23R
BRUNSWICK      PTCLDY    46  34  61 W3        30.21R
SAINT SIMONS   PTCLDY    48  35  60 NW6       30.19R

$$

SCZ027-028-034-036>038-045-046-048>050-GAZ119-141-131200-
...LAKE AND SUPPLEMENTAL COASTAL OBSERVATIONS...

STATION/POSITION TIME  TEMP    WIND        PRES    WAVE   SWELL
                       AIR SEA DIR/SP/G            HT/PER HT/PER/DIR
                 (UTC) (F)     (DEG/KT/KT) (MB)    (FT/S) (FT/S/D)
WINYAH BAY       1000   33     300/  2     1019.0
LAKE MURRAY      1000   35     300/  3/  4 1020.3R
ACE BASIN NERRS  1045   39        CALM     1021.0R
FORT PULASKI     1100   43 50  310/  7/  8 1022.2R
SAPELO ISLAND    1100   47     330/  9     1022.0R

$$

ANZ835-935-AMZ111-154-330-350-352-354-370-450-454-472-131200-
...C-MAN AND BUOY OBSERVATIONS...

STATION/POSITION TIME  TEMP    WIND        PRES    WAVE   SWELL
                       AIR SEA DIR/SP/G            HT/PER HT/PER/DIR
                 (UTC) (F)     (DEG/KT/KT) (MB)    (FT/S) (FT/S/D)
BUOY 41004       1050   48 67  350/ 19/ 21 1019.6R   4/ 6   2/10
BUOY 41008       1050   51 52  330/ 14/ 17 1021.9R   2/ 6   2/160/ 6
FOLLY BEACH CMAN 1100   37     300/  5/  6 1021.6R
CAPERS NEARSHORE 1008   41     340/ 12/ 16 1020.1R
FRIPP NEARSHORE  1000   46     320/ 17/ 21 1020.2R


STATION/POSITION TIME  TEMP    WIND        PRES    WAVE   SWELL
                       AIR SEA DIR/SP/G            HT/PER HT/PER/DIR
                 (UTC) (F)     (DEG/KT/KT) (MB)    (FT/S) (FT/S/D)
5E ST. MARYS GA  1021      55                N/A     2/ 2
FRYING PAN BUOY  1100   43 52  350/ 17/ 23 1020.0R
BUOY 41025       1050   39 71  340/ 21/ 25 1017.9R   6/ 8   3/ 60/ 8
CAPE LOOKOUT NC  NOT AVBL
BUOY 41002       1050   60 68  320/ 17/ 25   N/A    10/10   7/270/10
BUOY 41010       1020   69 72              1019.1R
ST AUGUSTINE FL  1100   54 57  310/  7/  9 1022.5R


$$




USA.gov is the U.S. government's official web portal to all federal, state and local government web resources and services.